Location: Bratislava
(0.0000°N, 17.1167°E)
Time: 04:39:22
(UTC+01:00)

SWARM A - Pass Details

Date: 24 January 2021
Orbit: 428 x 433 km, 87.4° (Epoch: 06 March)

Event Time Altitude Azimuth Distance (km) Brightness Sun altitude
Rises 18:37:55 0° 171° (S) 2,399 8.1 -8.1°
Reaches altitude 10° 18:39:59 10° 166° (SSE) 1,531 7.1 -8.6°
Maximum altitude 18:43:13 51° 89° (E) 550 4.4 -9.3°
Drops below altitude 10° 18:46:26 10° 12° (NNE) 1,526 6.7 -10.1°
Sets 18:48:29 0° 7° (N) 2,390 7.7 -10.6°
